Theta_e
303 304 307 308 308 309 309 310 310 308 308 307 305 305 305 305 307 311 317 317 317 319 316 321 323 324 326 327 329 331 333 335 335 339 337 332 331 330 328 329 328 328 331 333 336
304 304 305 308 308 308 309 310 309 309 308 308 306 305 305 307 314 318 319 318 316 317 317 322 326 326 327 328 328 332 335 336 336 337 337 333 329 329 329 329 328 327 327 328 334
305 304 305 308 308 308 309 309 309 309 309 308 306 306 306 309 323 326 319 318 317 315 317 322 325 327 328 329 328 329 335 336 336 335 332 334 330 329 329 329 329 328 327 326 326
305 304 305 308 308 308 309 309 308 308 308 307 306 307 308 317 328 317 311 313 314 314 319 322 325 326 327 329 329 328 329 333 333 333 333 327 330 332 328 328 328 326 326 325 325
305 304 307 308 308 309 309 309 307 307 307 307 307 308 314 325 324 316 315 316 316 318 320 324 326 326 326 328 329 329 327 326 327 329 328 326 324 330 329 326 326 325 325 324 325
305 306 308 309 309 309 309 308 307 307 308 309 310 312 320 327 319 318 318 319 320 320 321 323 326 326 326 326 326 327 326 325 325 323 323 324 324 323 324 326 323 324 324 324 325
304 307 309 309 310 309 308 307 308 309 311 312 313 316 326 322 319 319 319 320 320 320 322 322 323 324 325 325 326 325 324 324 324 323 323 323 323 322 323 323 323 323 324 325 325
305 308 310 310 311 310 310 311 312 313 312 312 312 320 325 318 318 319 319 319 318 319 320 320 320 321 323 324 324 324 324 324 324 325 323 322 321 323 324 323 323 323 324 325 326
305 309 310 311 312 313 313 313 313 313 313 312 317 323 324 317 318 318 319 319 319 319 319 319 319 321 322 323 324 325 325 324 323 325 323 322 322 324 324 324 324 326 325 325 326
306 310 310 311 313 313 313 313 317 313 317 317 321 324 320 319 318 318 318 318 319 320 320 319 319 320 321 323 324 325 324 324 324 324 323 323 323 323 325 325 324 325 325 325 325
311 310 311 312 314 314 314 319 321 324 322 323 320 319 318 318 317 318 318 319 319 320 320 321 320 320 321 323 323 323 323 324 324 324 324 324 324 324 324 324 324 323 325 325 327
314 313 311 313 315 315 315 323 322 322 323 318 318 318 318 318 320 319 318 320 320 321 322 323 322 323 324 323 322 322 322 322 323 323 324 323 324 323 324 324 323 322 326 326 327
314 315 313 314 315 315 320 320 320 321 324 319 319 319 318 319 319 319 320 321 322 323 322 322 324 322 322 322 321 321 322 323 324 323 323 323 323 325 325 324 324 324 325 327 330
314 315 315 315 315 320 321 320 319 322 327 319 319 319 319 320 320 319 320 321 321 322 321 322 322 322 321 320 321 322 324 324 323 323 322 323 322 323 324 324 326 326 327 326 329
313 313 315 316 317 321 322 319 320 322 335 320 319 319 319 319 320 320 320 323 322 322 319 323 322 321 321 323 324 323 322 322 322 321 322 323 323 322 327 326 327 327 327 328 328
313 316 315 318 318 319 318 319 320 328 332 320 320 319 319 320 320 320 322 321 321 321 320 321 320 320 322 322 321 321 320 322 323 323 325 325 324 323 324 324 326 328 327 326 326
311 316 314 318 322 320 320 320 327 333 324 321 320 320 320 321 321 320 321 323 321 325 325 322 321 321 319 320 322 323 323 322 324 325 326 325 322 322 324 323 322 321 325 327 326
310 315 320 321 320 321 324 327 333 329 321 321 321 320 321 321 322 320 321 324 322 320 322 322 324 323 320 318 319 319 320 320 323 324 320 318 318 322 325 323 323 323 325 326 327
313 317 320 323 321 322 328 331 330 324 321 320 320 320 323 322 320 320 321 323 321 321 324 325 323 320 319 317 318 321 321 322 322 319 319 320 322 324 323 324 324 323 324 323 322
315 324 325 320 322 325 329 331 327 322 320 320 321 322 322 323 319 321 323 323 321 320 321 324 324 321 320 318 318 318 321 321 321 323 323 321 321 320 323 323 324 323 322 321 320
321 327 323 319 322 326 330 327 322 321 322 322 322 321 320 320 319 319 320 323 321 321 320 321 323 322 322 322 322 322 322 321 322 324 325 324 322 321 324 322 321 319 319 318 318
321 325 321 318 322 325 327 325 315 321 320 320 320 321 321 322 321 320 320 326 320 319 320 324 324 322 320 321 321 320 320 319 329 325 325 327 325 321 321 319 320 318 317 317 317
321 322 318 318 325 328 325 322 320 320 321 321 321 321 322 321 326 321 321 322 321 319 324 323 323 325 326 321 323 323 320 320 321 326 324 326 323 319 319 319 317 318 317 317 317
322 321 319 319 322 325 324 322 321 319 319 319 321 321 320 322 322 322 321 322 320 318 319 316 317 319 323 322 322 319 317 316 318 337 318 317 316 316 317 317 317 317 317 316 316
322 320 320 324 322 321 321 322 320 321 319 319 320 320 321 326 321 321 321 320 320 320 319 321 324 321 320 318 316 316 316 316 316 316 319 317 315 314 317 317 318 317 316 314 314
317 318 319 320 319 320 315 322 320 320 318 321 320 320 320 320 322 322 321 321 321 321 320 322 323 321 322 320 317 316 316 315 315 315 314 314 314 316 318 316 315 314 313 312 312
311 314 318 317 320 319 322 321 320 318 319 317 318 319 319 322 320 321 318 318 319 320 320 321 321 325 323 320 318 318 317 317 314 314 315 316 316 317 316 315 313 312 311 311 309
Wind_Speed
13 11 11 10 9 8 7 6 6 6 6 6 6 6 7 8 9 9 13 4 17 8 8 11 13 15 15 11 11 9 12 11 22 24 17 9 5 8 4 5 9 10 14 10 9
12 10 10 10 9 7 6 6 6 5 6 6 6 6 7 8 11 17 13 8 7 9 8 15 14 14 12 13 10 5 11 21 18 16 17 14 16 12 6 6 7 10 10 6 6
12 10 9 9 8 6 5 4 4 4 5 5 5 6 7 7 9 8 11 9 10 13 14 20 21 17 16 16 14 13 14 22 22 23 17 12 16 20 13 6 7 10 7 10 2
12 9 8 7 6 5 4 3 3 3 4 4 4 6 7 5 3 4 5 8 10 10 13 19 14 15 15 18 21 16 16 15 20 18 23 13 18 12 13 15 16 5 7 7 2
11 8 7 6 5 4 3 3 2 2 3 3 4 6 5 7 0 5 4 6 8 9 16 16 17 16 18 19 19 18 12 14 14 18 19 14 18 16 16 13 17 8 5 5 9
10 8 6 6 5 3 2 1 1 2 2 3 5 6 5 11 7 5 6 8 12 16 17 19 14 15 17 20 18 16 11 18 17 8 20 17 17 16 17 17 13 12 6 8 15
9 7 6 6 5 2 1 2 2 2 2 4 5 4 10 7 2 5 6 12 10 15 15 17 12 11 11 14 13 11 13 13 15 16 16 15 19 18 19 15 3 2 7 10 11
8 6 6 7 5 2 1 2 2 3 4 6 6 5 7 1 5 5 8 6 6 7 9 4 6 10 14 14 6 9 14 17 19 24 17 8 13 19 10 15 5 8 11 12 7
7 5 6 7 5 1 2 3 4 6 7 9 7 9 5 2 10 2 6 8 7 8 6 4 9 14 14 12 13 14 16 20 23 13 13 15 13 9 5 5 5 5 7 9 6
8 5 5 7 6 4 5 7 8 11 9 9 15 11 8 6 5 2 1 7 7 8 9 9 8 12 13 13 13 19 17 17 14 13 8 9 13 13 10 12 10 7 9 8 6
10 7 6 7 6 7 7 8 6 6 12 11 2 3 3 6 6 7 2 7 8 8 11 14 11 14 19 21 21 9 14 14 8 11 4 5 12 15 13 9 8 4 6 6 4
11 8 6 6 6 9 11 6 8 11 6 3 1 2 5 2 5 6 5 8 7 12 14 13 13 16 6 6 8 9 12 14 12 4 3 6 15 17 15 13 9 2 4 3 3
11 9 6 6 8 14 14 8 8 8 6 6 4 5 5 9 4 4 8 5 11 9 8 14 8 8 4 5 6 10 13 12 10 13 10 16 19 21 15 12 6 2 4 4 7
10 8 8 9 10 14 8 5 7 6 6 8 8 5 7 2 4 3 4 8 5 10 3 10 11 6 3 7 8 10 11 10 7 10 11 16 12 15 11 10 8 8 4 6 9
11 8 8 9 15 14 6 7 8 4 5 8 8 5 3 5 1 6 2 10 8 8 6 5 4 4 5 6 8 9 10 10 13 13 14 16 10 12 16 13 15 11 8 8 6
12 9 10 9 15 12 7 6 4 5 2 6 4 8 11 3 2 2 2 2 1 8 4 5 5 4 11 8 4 8 11 14 15 13 12 17 11 4 7 10 12 13 10 7 4
14 10 9 10 9 9 7 7 6 8 3 6 5 5 5 6 6 3 3 5 8 7 6 4 6 4 4 10 9 6 9 8 6 8 9 10 2 6 13 11 7 6 7 11 6
15 11 8 9 9 6 7 7 10 7 2 6 4 2 4 3 4 1 5 7 9 10 10 8 5 4 4 6 9 8 5 5 7 8 12 15 7 2 17 14 12 9 15 16 13
13 11 12 12 5 4 7 8 5 9 8 7 2 8 9 7 5 1 2 8 8 9 8 8 4 4 4 5 8 7 4 10 8 12 12 10 9 15 13 16 13 10 11 9 7
12 14 15 2 2 6 6 13 4 5 5 3 10 3 11 8 2 4 5 4 3 5 8 6 7 3 4 5 10 7 9 6 4 7 11 9 14 7 11 4 4 5 3 5 5
5 5 7 2 4 6 9 6 7 7 7 4 7 5 4 6 3 9 4 8 3 7 8 7 4 7 3 5 6 2 6 9 8 7 8 11 8 4 16 12 10 12 14 12 13
8 5 7 4 6 9 7 4 3 5 1 1 4 5 4 5 8 3 3 8 5 8 8 7 4 8 14 16 7 5 10 9 5 8 9 10 12 17 10 16 17 16 14 16 14
6 9 6 6 6 8 7 3 3 1 2 3 1 0 4 6 2 7 2 9 7 7 8 11 2 6 6 8 7 5 4 5 8 8 11 11 11 18 19 19 15 16 16 15 15
5 5 3 4 3 7 2 6 7 1 1 4 6 1 5 7 6 4 4 6 4 3 6 2 4 8 8 13 16 13 15 14 12 4 13 14 21 19 16 16 17 17 18 19 18
4 4 3 6 7 8 4 6 4 3 1 1 2 4 5 3 9 11 1 1 7 10 3 2 5 10 14 16 17 17 18 16 15 14 14 17 19 16 17 19 19 19 19 20 22
6 5 7 3 5 6 3 2 5 7 1 4 2 8 3 4 4 8 9 8 5 8 1 2 5 11 15 16 16 14 14 16 17 14 14 16 17 19 19 21 21 21 23 23 22
15 10 6 4 4 5 6 7 5 4 4 4 5 7 7 9 8 8 7 8 9 8 9 8 7 5 6 14 16 11 7 8 12 13 14 14 17 19 19 19 20 21 22 21 21
Wind_Direction
339 330 328 332 331 326 320 311 291 269 263 270 275 281 282 286 280 264 242 227 220 253 254 253 229 247 247 253 263 303 284 276 274 34 304 353 271 105 58 313 46 40 63 93 137
336 328 325 328 327 325 313 309 296 273 261 264 272 280 288 303 288 263 229 231 200 232 252 231 229 225 234 234 236 225 269 265 304 320 277 334 340 345 3 305 172 166 140 144 172
341 332 328 329 330 325 318 312 301 270 257 257 265 280 292 334 287 219 191 214 232 236 253 272 247 228 229 233 190 228 228 274 269 296 305 314 317 318 316 299 336 3 132 142 29
347 338 336 336 335 333 325 313 294 261 245 247 259 275 294 284 327 114 166 197 204 213 258 260 252 246 236 229 236 201 235 228 270 282 291 303 292 313 305 307 320 56 33 3 343
351 346 344 343 333 329 318 300 280 236 221 227 262 292 314 240 138 119 156 190 205 223 242 240 232 235 244 242 247 217 213 255 240 268 286 288 288 275 295 293 302 322 323 307 288
357 354 353 351 343 333 318 276 191 178 192 260 285 302 257 270 87 139 189 199 225 214 232 238 240 243 259 253 254 259 212 229 243 235 268 273 271 277 268 279 261 285 297 290 278
4 5 8 4 5 13 131 162 171 209 258 277 289 290 270 347 140 169 209 233 237 219 237 225 260 270 250 269 281 278 277 270 254 236 229 256 271 266 268 263 325 339 312 291 275
10 15 16 11 14 55 141 182 223 264 279 279 283 260 288 342 303 217 218 215 233 275 307 11 301 287 273 277 267 274 252 256 253 232 216 182 257 267 318 211 147 242 248 252 252
10 14 11 7 360 313 244 254 269 277 276 277 276 214 236 143 207 199 280 282 204 220 237 302 261 255 249 240 259 239 253 251 244 240 169 189 244 329 136 172 232 268 265 264 236
9 2 357 353 346 296 285 284 286 282 274 253 265 271 230 86 69 305 212 274 243 239 230 224 234 238 232 235 240 248 248 232 255 151 159 266 278 265 216 188 205 227 266 270 284
6 350 339 341 332 294 296 288 227 214 231 266 39 262 125 100 192 209 196 219 245 248 242 209 223 227 229 218 234 288 302 305 7 119 171 266 272 278 283 275 259 218 254 272 15
3 347 326 319 307 295 286 256 22 314 292 194 263 313 339 248 190 108 219 235 186 237 208 238 227 250 16 1 343 306 277 277 272 293 44 281 275 273 259 259 261 355 333 309 88
356 351 320 290 288 283 246 326 310 327 276 177 219 182 189 243 29 49 258 271 244 252 214 255 70 17 314 271 272 263 266 280 350 345 316 261 263 252 260 212 100 101 248 71 86
341 339 334 306 290 266 254 317 299 357 272 141 196 142 203 230 144 323 316 292 235 320 12 269 58 332 281 259 265 279 18 349 310 295 288 328 299 285 187 148 152 159 158 158 98
326 319 304 298 302 299 354 300 320 287 262 156 125 74 328 264 69 123 349 273 299 13 265 29 31 289 258 20 23 300 2 307 288 278 280 275 261 271 140 179 164 145 161 121 148
310 304 301 271 261 267 303 283 233 241 297 127 157 203 200 174 110 95 194 247 252 298 277 12 5 331 351 349 332 317 287 276 260 250 257 256 234 102 91 78 114 146 156 145 140
312 285 277 290 304 331 302 223 236 262 148 139 198 207 265 109 175 320 348 69 354 326 245 169 152 101 322 307 193 235 313 315 304 218 247 87 273 299 112 115 90 53 81 142 108
317 264 281 259 299 312 271 239 264 230 43 32 318 209 264 71 170 2 252 148 61 351 315 306 168 140 63 2 330 309 344 311 313 328 321 333 309 14 91 83 64 55 63 60 59
321 260 253 229 298 279 270 244 291 348 28 333 213 274 181 153 295 229 114 15 43 15 350 329 60 124 66 339 319 2 335 358 316 290 268 292 326 82 95 76 62 58 32 31 37
329 278 248 129 256 255 245 258 296 52 327 284 289 42 319 86 298 191 117 54 54 25 347 3 304 31 64 295 244 265 347 318 284 288 292 302 331 343 52 80 118 11 326 284 308
292 253 117 194 199 239 246 324 91 69 350 321 352 302 332 337 341 311 342 102 31 15 320 306 281 301 174 237 346 266 301 319 314 325 294 297 280 298 9 8 9 347 344 9 17
297 265 115 196 228 228 258 38 23 47 284 22 310 350 320 17 305 312 358 62 39 343 318 61 320 293 294 310 66 314 296 302 308 306 308 309 289 281 323 351 341 333 6 7 2
292 303 106 215 254 285 122 113 55 302 57 335 325 316 43 303 32 317 28 94 51 346 30 358 309 316 321 271 102 274 306 314 278 261 261 280 281 301 315 329 356 11 3 350 352
280 296 147 215 281 305 65 186 154 80 3 298 322 343 293 279 191 268 279 118 125 66 58 352 274 271 273 298 316 306 302 299 296 279 284 278 295 302 316 9 3 3 6 360 350
262 30 360 345 37 339 324 12 278 149 259 105 247 241 352 13 326 309 336 328 183 144 163 281 290 305 300 306 301 295 292 289 287 291 291 298 300 324 13 6 12 3 352 341 337
343 351 339 317 314 291 150 110 341 82 303 108 295 335 337 288 272 293 346 335 300 169 159 134 293 311 303 285 276 292 306 301 289 304 320 326 321 1 7 8 358 350 344 331 332
359 345 282 289 207 264 56 54 47 10 121 339 355 324 298 33 350 337 323 299 291 294 298 308 290 321 283 344 314 299 322 337 330 330 350 336 342 6 356 360 349 336 329 331 328